COSMOS 797

Satellite information

Favourite Embed

Satellite Type and Status

PAYLOADIN ORBIT

Key statistics

Satellite COSMOS 797 at a glance.

Uptime

18121

Days in orbit

Revolutions

≈ 12.4

Per day

Orbit

LEO

Low Earth Orbit

Inclination

74.1

Latest

Satellite identification and parameters

Extended collection of information and parameters for COSMOS 797.

Object identification

Identified? True

Debris? False

Object name: COSMOS 797

International designator: 1976-008G

Object number (NORAD): 8613

Object ID (CCSDS): 8613

Country: COMMONWEALTH OF INDEPENDENT STATES (CIS)

Current information (Y/N): Y

RCS size: MEDIUM

Orbital parameters

Period: 116.065 minutes

Inclination: 74.0523 deg

SMA: 7881.841 km

Apoapsis: 1528.67 km

Periapsis: 1478.742 km

RAAN: 72.8303 deg

Eccentricy: 0.00316732

Argument of periapsis: 63.6487 deg

Mean anomaly: 49.8136 deg

Mean motion: 12.40684203 rev/day

Mean motion (dot): -0.00000009 rev/day2

B* drag term: 0.000043669091 1/REarth

Two-line elements (TLE)

Creation date: Sept. 8, 2025, 3:16 a.m.

Reference frame: TEME

Reference center: EARTH

Epoch: Sept. 7, 2025, 10:36 p.m. UTC

TLE line 0: 0 COSMOS 797

TLE line 1: 1 08613U 76008G 25250.94180345 -.00000009 00000-0 43669-4 0 9999

TLE line 2: 2 08613 74.0523 72.8303 0031673 63.6487 49.8136 12.40684203247002

Live tracking on map

Real-time ground track for satellite COSMOS 797.

In-orbit conjunctions

There are no conjunctions computed for COSMOS 797, at the moment. Check back to stay up to date, as we update our databases every day.

Go to all conjunctions

Associated space launch

Military communications satellites

COSMOS 797 was lifted into orbit during the mission ‘Kosmos-3M | Strela-1M 105-112’, on board a Kosmos-3M space rocket.

The launch took place on Jan. 28, 1976, 10:39 a.m. from 132/1 (132L).

For more information about the launch, click the button.

Launch to space Kosmos-3M | Strela-1M 105-112
Kosmos-3M | Strela-1M 105-112

Agency: N/A

Status: Launch Successful

Launch date: Jan. 28, 1976, 10:39 a.m. UTC

Rocket: Kosmos-3M

Launch pad: 132/1 (132L)

Location: Plesetsk Cosmodrome, Russian Federation

...

Latest news about this satellite

There are no fresh news available about this satellite. Check back as we update our databases every day.


Newsletter sign-up

Weekly statistics, charts and insights to help you stay on top of the space industry.